TimeEDT,TemperatureF,Dew PointF,Humidity,Sea Level PressureIn,VisibilityMPH,Wind Direction,Wind SpeedMPH,Gust SpeedMPH,PrecipitationIn,Events,Conditions,WindDirDegrees,DateUTC
12:53 AM,33.1,30.9,92,30.43,10.0,Calm,Calm,-,N/A,,Clear,0,2012-10-13 04:53:00
1:53 AM,32.0,28.9,88,30.43,10.0,Calm,Calm,-,N/A,,Clear,0,2012-10-13 05:53:00
2:53 AM,30.0,28.0,92,30.42,10.0,Calm,Calm,-,N/A,,Clear,0,2012-10-13 06:53:00
3:53 AM,30.9,28.0,89,30.39,10.0,Calm,Calm,-,N/A,,Clear,0,2012-10-13 07:53:00
4:53 AM,30.0,27.0,88,30.40,10.0,Calm,Calm,-,N/A,,Clear,0,2012-10-13 08:53:00
5:53 AM,30.0,27.0,88,30.40,10.0,Calm,Calm,-,N/A,,Clear,0,2012-10-13 09:53:00
6:53 AM,28.9,26.1,89,30.39,10.0,Calm,Calm,-,N/A,,Clear,0,2012-10-13 10:53:00
7:53 AM,30.0,27.0,88,30.39,10.0,Calm,Calm,-,N/A,,Clear,0,2012-10-13 11:53:00
8:53 AM,37.0,30.9,79,30.38,10.0,SSE,3.5,-,N/A,,Clear,160,2012-10-13 12:53:00
9:53 AM,43.0,32.0,65,30.38,10.0,SSE,5.8,-,N/A,,Clear,160,2012-10-13 13:53:00
10:53 AM,48.9,34.0,56,30.35,10.0,SE,5.8,-,N/A,,Clear,130,2012-10-13 14:53:00
11:53 AM,55.9,37.9,51,30.31,10.0,SSE,5.8,-,N/A,,Clear,150,2012-10-13 15:53:00
12:53 PM,62.1,42.1,48,30.27,10.0,SSE,6.9,-,N/A,,Clear,150,2012-10-13 16:53:00
1:53 PM,64.9,42.1,43,30.24,10.0,South,8.1,-,N/A,,Clear,170,2012-10-13 17:53:00
2:53 PM,66.9,42.1,40,30.20,10.0,South,6.9,-,N/A,,Clear,190,2012-10-13 18:53:00
3:53 PM,68.0,42.1,39,30.17,10.0,South,10.4,16.1,N/A,,Clear,190,2012-10-13 19:53:00
4:53 PM,66.9,43.0,42,30.15,10.0,South,4.6,-,N/A,,Partly Cloudy,190,2012-10-13 20:53:00
5:53 PM,66.0,43.0,43,30.13,10.0,SSE,6.9,-,N/A,,Clear,150,2012-10-13 21:53:00
6:53 PM,64.9,43.0,45,30.12,10.0,South,9.2,-,N/A,,Clear,170,2012-10-13 22:53:00
8:53 PM,64.9,45.0,48,30.09,10.0,South,6.9,-,N/A,,Clear,170,2012-10-14 00:53:00
10:53 PM,64.9,48.9,56,30.06,10.0,Variable,6.9,-,0.00,Rain,Light Rain,0,2012-10-14 02:53:00